Weather History for Bethel, AK

Change the Weather History Date:

Tuesday, January 22, 2013

  Actual Average Record
Temperature  
Mean Temperature 16 °F -  
Max Temperature 18 °F 12 °F 40 °F (1937)
Min Temperature 13 °F - -39 °F (1973)
Degree Days  
Heating Degree Days 49 59  
Month to date heating degree days 997 1293  
Since 1 July heating degree days 6949 6717  
Cooling Degree Days 0    
Month to date cooling degree days 0  
Year to date cooling degree days 0  
Moisture  
Dew Point 12 °F    
Average Humidity 82    
Maximum Humidity 93    
Minimum Humidity 68    
Precipitation  
Precipitation 0.02 in 0.02 in 0.30 in (1999)
Month to date precipitation 1.11 0.57  
Year to date precipitation 1.11 0.57  
Snow  
Snow 0.10 in 0.30 in 3.90 in (2000)
Month to date snowfall 11.1 7.2  
Since 1 July snowfall 23.8 36.5  
Snow Depth 4.00 in    
Sea Level Pressure  
Sea Level Pressure 29.50 in    
Wind  
Wind Speed 19 mph (NE)    
Max Wind Speed 28 mph    
Max Gust Speed 33 mph    
Visibility 7 miles    
Events Fog , Rain , Snow    
T = Trace of Precipitation, MM = Missing Value Source: NWS Daily Summary

Daily Weather History Graph

Daily Weather History Graph

Search for Another Location

Airport:

Trip Planner

Search our weather history database for the weather conditions in past years. The results will help you decide how hot, cold, wet, or windy it might be!

Date:

Astronomy

Jan. 22, 2013 Rise Set
Actual Time 10:26 AM AKST 5:31 PM AKST
Civil Twilight 9:34 AM AKST 6:23 PM AKST
Nautical Twilight 8:40 AM AKST 7:18 PM AKST
Astronomical Twilight 7:50 AM AKST 8:08 PM AKST
Moon 1:47 PM AKST (1/22) 7:13 AM AKST (1/22)
Length of Visible Light 8h 49m
Length of Day
7h 04m
Waxing Gibbous, 84% of the Moon is Illuminated
Jan 22
Waxing Gibbous
Jan 26
Full
Feb 3
Last Quarter
Feb 9
New
Feb 17
First Quarter

Hourly Weather History & Observations

Time (AKST) Temp. Windchill Dew Point Humidity Pressure Visibility Wind Dir Wind Speed Gust Speed Precip Events Conditions
12:53 AM 15.1 °F -3.7 °F 9.0 °F 77% 29.55 in 3.0 mi NNE 24.2 mph 32.2 mph N/A Snow Blowing Snow
1:53 AM 16.0 °F -0.9 °F 10.0 °F 77% 29.57 in 6.0 mi NE 19.6 mph 25.3 mph 0.00 in Snow Light Snow
2:11 AM 15.8 °F -1.9 °F 10.4 °F 79% 29.56 in 1.8 mi NE 21.9 mph - 0.00 in Snow Light Snow
2:23 AM 15.8 °F -2.7 °F 10.4 °F 79% 29.55 in 2.0 mi NE 24.2 mph - 0.00 in Snow Light Snow
2:30 AM 15.8 °F -1.5 °F 10.4 °F 79% 29.55 in 1.2 mi NE 20.7 mph 29.9 mph 0.00 in Snow Light Snow
2:41 AM 14.0 °F -4.3 °F 10.4 °F 86% 29.54 in 1.2 mi NE 21.9 mph - 0.00 in Snow Light Snow
2:53 AM 15.1 °F -4.7 °F 10.9 °F 84% 29.55 in 1.2 mi NE 27.6 mph 32.2 mph 0.00 in Snow Light Snow
3:21 AM 14.0 °F -4.3 °F 10.4 °F 86% 29.53 in 3.0 mi NNE 21.9 mph 29.9 mph 0.00 in Snow Light Snow
3:53 AM 12.9 °F -6.9 °F 10.0 °F 88% 29.53 in 2.5 mi NNE 25.3 mph - 0.00 in Snow Blowing Snow
4:10 AM 12.2 °F -6.7 °F 10.4 °F 92% 29.51 in 4.0 mi NNE 21.9 mph - 0.00 in Snow Light Snow
4:53 AM 15.1 °F -2.5 °F 10.0 °F 80% 29.52 in 10.0 mi NE 20.7 mph - 0.00 in   Overcast
5:53 AM 15.1 °F -3.3 °F 9.0 °F 77% 29.51 in 10.0 mi NE 23.0 mph - N/A   Overcast
6:53 AM 14.0 °F -0.8 °F 9.0 °F 80% 29.51 in 10.0 mi NNE 13.8 mph - N/A   Mostly Cloudy
7:53 AM 16.0 °F 0.6 °F 9.0 °F 74% 29.50 in 10.0 mi NE 16.1 mph - N/A   Overcast
8:53 AM 16.0 °F 0.1 °F 10.0 °F 77% 29.50 in 10.0 mi NE 17.3 mph - N/A   Overcast
9:53 AM 16.0 °F -0.4 °F 10.9 °F 81% 29.51 in 10.0 mi NE 18.4 mph - N/A   Overcast
10:37 AM 15.8 °F -0.6 °F 10.4 °F 79% 29.50 in 9.0 mi NE 18.4 mph - N/A   Overcast
10:43 AM 15.8 °F -0.6 °F 12.2 °F 86% 29.50 in 10.0 mi NE 18.4 mph - 0.01 in   Light Freezing Drizzle
10:53 AM 17.1 °F 1.0 °F 12.9 °F 84% 29.51 in 8.0 mi NE 18.4 mph - 0.01 in   Light Freezing Drizzle
11:09 AM 17.6 °F 1.7 °F 14.0 °F 86% 29.50 in 6.0 mi NE 18.4 mph 23.0 mph 0.00 in Rain Light Freezing Rain
11:27 AM 17.6 °F 2.7 °F 15.8 °F 93% 29.50 in 4.0 mi NE 16.1 mph - 0.00 in Rain Light Freezing Rain
11:30 AM 17.6 °F 1.7 °F 15.8 °F 93% 29.50 in 4.0 mi NE 18.4 mph - 0.00 in Rain Light Freezing Rain
11:41 AM 17.6 °F 2.2 °F 15.8 °F 93% 29.50 in 6.0 mi NE 17.3 mph - 0.00 in Snow Light Snow
11:53 AM 18.0 °F 2.6 °F 15.1 °F 88% 29.51 in 6.0 mi NNE 17.3 mph - 0.00 in Snow Light Snow
12:53 PM 17.1 °F 0.6 °F 14.0 °F 88% 29.51 in 10.0 mi NE 19.6 mph - 0.01 in Fog Patches of Fog
1:53 PM 17.1 °F 2.5 °F 12.9 °F 84% 29.50 in 10.0 mi NE 15.0 mph - N/A   Overcast
2:53 PM 17.1 °F 3.0 °F 12.9 °F 84% 29.49 in 10.0 mi NNE 13.8 mph - N/A   Overcast
3:53 PM 16.0 °F 1.1 °F 12.0 °F 84% 29.48 in 10.0 mi North 15.0 mph - N/A   Overcast
4:53 PM 16.0 °F 0.1 °F 12.0 °F 84% 29.47 in 10.0 mi NNE 17.3 mph - N/A   Mostly Cloudy
5:53 PM 18.0 °F 2.2 °F 12.9 °F 81% 29.45 in 10.0 mi NNE 18.4 mph - N/A   Mostly Cloudy
6:53 PM 18.0 °F 2.6 °F 14.0 °F 84% 29.46 in 10.0 mi NE 17.3 mph - N/A   Overcast
7:53 PM 18.0 °F 2.2 °F 14.0 °F 84% 29.45 in 10.0 mi NE 18.4 mph - N/A   Overcast
8:53 PM 18.0 °F 2.6 °F 12.9 °F 81% 29.45 in 10.0 mi NE 17.3 mph - N/A   Overcast
9:53 PM 17.1 °F 1.5 °F 12.0 °F 81% 29.45 in 10.0 mi NE 17.3 mph - N/A   Partly Cloudy
10:53 PM 17.1 °F 0.6 °F 12.0 °F 81% 29.45 in 10.0 mi NE 19.6 mph - N/A   Overcast
11:53 PM 17.1 °F 0.1 °F 12.0 °F 81% 29.44 in 10.0 mi NE 20.7 mph - N/A   Overcast